Home   Weather   Gambier Islands   Past weeks

Flag for French Polynesia Past Weather in Gambier Islands, French Polynesia — Yesterday and Last 2 Weeks

Now
77 °F

Overcast.


Feels Like: 78 °F
Forecast: 76 / 82 °F
Wind: 2 mph from Northwest

Location: Rikitea

Current Time: Feb 20, 2017 at 6:45:43 am

Latest Report: Feb 20, 2017 at 6:00 am


Visibility: 19 mi

Pressure: 29.98 "Hg

Humidity: 89%

Dew Point: 74 °F

Location of Gambier IslandsLocation

Past Weather in Gambier Islands — Graph

°F

Gambier Islands Temperature Yesterday

Maximum temperature yesterday: 83 °F (at 12:00 pm)
Minimum temperature yesterday: 79 °F (at 10:00 pm)
Average temperature yesterday: 80 °F

High & Low Weather Summary for the Past Weeks

 TemperatureHumidityPressure
High84 °F (Feb 8, 12:00 pm)93% (Feb 11, 6:00 pm)30.06 "Hg (Feb 11, 6:00 pm)
Low71 °F (Feb 13, 3:00 am)66% (Feb 8, 12:00 pm)29.77 "Hg (Feb 15, 4:00 pm)
Average79 °F83%29.94 "Hg
* Reported Feb 5 6:00 am — Feb 20 4:00 am, Gambier Islands, Weather by CustomWeather, © 2017

Note: Actual official high and low records may vary slightly from our data, if they occured in-between our weather recording intervals... More about our weather records

Advertising

Gambier Islands Weather History for the Previous 24 Hours

Scroll right to see more
 ConditionsComfort  
Time TempWeatherWind HumidityBarometerVisibility
4:00 am
Mon, Feb 20
77 °FWarm.5 mph90%29.96 "HgN/A
3:00 am77 °FWarm.5 mph90%29.95 "HgN/A
2:00 am77 °FWarm.8 mph85%29.96 "HgN/A
1:00 am78 °FWarm.5 mph89%29.98 "HgN/A
12:00 am78 °FWarm.5 mph89%30.00 "HgN/A
10:00 pm
Sun, Feb 19
79 °FWarm.5 mph89%30.02 "HgN/A
9:00 pm79 °FWarm.5 mph88%30.01 "HgN/A
8:00 pm79 °FWarm.6 mph86%29.99 "HgN/A
7:00 pm79 °FWarm.5 mph86%29.98 "HgN/A
6:00 pm80 °FWarm.7 mph84%29.96 "HgN/A
5:00 pm81 °FScattered clouds.6 mph83%29.94 "Hg19 mi
4:00 pm81 °FPartly sunny.7 mph81%29.95 "Hg19 mi
3:00 pm81 °FPartly sunny.7 mph79%29.95 "Hg19 mi
2:00 pm83 °FWarm.6 mph75%29.96 "HgN/A
1:00 pm82 °FWarm.7 mph78%29.97 "HgN/A
12:00 pm83 °FScattered clouds.6 mph75%29.99 "Hg19 mi
11:00 am83 °FPartly sunny.7 mph78%30.00 "Hg19 mi
10:00 am82 °FPartly sunny.6 mph78%30.00 "Hg19 mi
9:00 am82 °FPartly sunny.6 mph81%30.01 "Hg19 mi
8:00 am81 °FPartly sunny.7 mph82%30.00 "Hg19 mi
7:00 am80 °FPartly sunny.7 mph85%29.99 "Hg5 mi
6:00 am79 °FPartly sunny.7 mph86%29.98 "Hg19 mi
Weather by CustomWeather, © 2017

See weather overviewHow to use our weather pages